Year,Month,Day,Hour,Minute,Value (Times are PST for temperature in C)
2017,08,04,00,00,18.20
2017,08,04,00,01,18.10
2017,08,04,00,02,18.10
2017,08,04,00,03,18.10
2017,08,04,00,04,18.10
2017,08,04,00,05,18.10
2017,08,04,00,06,18.10
2017,08,04,00,07,18.00
2017,08,04,00,08,18.00
2017,08,04,00,09,18.00
2017,08,04,00,10,17.90
2017,08,04,00,11,17.90
2017,08,04,00,12,17.90
2017,08,04,00,13,17.90
2017,08,04,00,14,17.80
2017,08,04,00,15,17.80
2017,08,04,00,16,17.80
2017,08,04,00,17,17.80
2017,08,04,00,18,17.80
2017,08,04,00,19,17.80
2017,08,04,00,20,17.80
2017,08,04,00,21,17.80
2017,08,04,00,22,17.70
2017,08,04,00,23,17.70
2017,08,04,00,24,17.70
2017,08,04,00,25,17.70
2017,08,04,00,26,17.80
2017,08,04,00,27,17.80
2017,08,04,00,28,17.80
2017,08,04,00,29,17.80
2017,08,04,00,30,17.80
2017,08,04,00,31,17.80
2017,08,04,00,32,17.80
2017,08,04,00,33,17.80
2017,08,04,00,34,17.80
2017,08,04,00,35,17.80
2017,08,04,00,36,17.90
2017,08,04,00,37,17.90
2017,08,04,00,38,17.90
2017,08,04,00,39,17.90
2017,08,04,00,40,17.90
2017,08,04,00,41,17.90
2017,08,04,00,42,17.90
2017,08,04,00,43,17.90
2017,08,04,00,44,17.80
2017,08,04,00,45,17.80
2017,08,04,00,46,17.80
2017,08,04,00,47,17.80
2017,08,04,00,48,17.80
2017,08,04,00,49,17.70
2017,08,04,00,50,17.70
2017,08,04,00,51,17.70
2017,08,04,00,52,17.60
2017,08,04,00,53,17.60
2017,08,04,00,54,17.60
2017,08,04,00,55,17.60
2017,08,04,00,56,17.60
2017,08,04,00,57,17.60
2017,08,04,00,58,17.60
2017,08,04,00,59,17.60
2017,08,04,01,00,17.60
2017,08,04,01,01,17.60
2017,08,04,01,02,17.60
2017,08,04,01,03,17.60
2017,08,04,01,04,17.60
2017,08,04,01,05,17.60
2017,08,04,01,06,17.60
2017,08,04,01,07,17.60
2017,08,04,01,08,17.60
2017,08,04,01,09,17.60
2017,08,04,01,10,17.50
2017,08,04,01,11,17.50
2017,08,04,01,12,17.50
2017,08,04,01,13,17.50
2017,08,04,01,14,17.50
2017,08,04,01,15,17.60
2017,08,04,01,16,17.60
2017,08,04,01,17,17.60
2017,08,04,01,18,17.60
2017,08,04,01,19,17.60
2017,08,04,01,20,17.60
2017,08,04,01,21,17.60
2017,08,04,01,22,17.60
2017,08,04,01,23,17.60
2017,08,04,01,24,17.70
2017,08,04,01,25,17.70
2017,08,04,01,26,17.70
2017,08,04,01,27,17.70
2017,08,04,01,28,17.70
2017,08,04,01,29,17.70
2017,08,04,01,30,17.70
2017,08,04,01,31,17.70
2017,08,04,01,32,17.70
2017,08,04,01,33,17.70
2017,08,04,01,34,17.60
2017,08,04,01,35,17.60
2017,08,04,01,36,17.50
2017,08,04,01,37,17.50
2017,08,04,01,38,17.40
2017,08,04,01,39,17.40
2017,08,04,01,40,17.40
2017,08,04,01,41,17.40
2017,08,04,01,42,17.30
2017,08,04,01,43,17.30
2017,08,04,01,44,17.30
2017,08,04,01,45,17.30
2017,08,04,01,46,17.30
2017,08,04,01,47,17.30
2017,08,04,01,48,17.30
2017,08,04,01,49,17.30
2017,08,04,01,50,17.20
2017,08,04,01,51,17.20
2017,08,04,01,52,17.20
2017,08,04,01,53,17.20
2017,08,04,01,54,17.20
2017,08,04,01,55,17.20
2017,08,04,01,56,17.10
2017,08,04,01,57,17.20
2017,08,04,01,58,17.20
2017,08,04,01,59,17.30
2017,08,04,02,00,17.40
2017,08,04,02,01,17.60
2017,08,04,02,02,17.70
2017,08,04,02,03,17.70
2017,08,04,02,04,17.70
2017,08,04,02,05,17.70
2017,08,04,02,06,17.60
2017,08,04,02,07,17.50
2017,08,04,02,08,17.40
2017,08,04,02,09,17.30
2017,08,04,02,10,17.20
2017,08,04,02,11,17.10
2017,08,04,02,12,17.00
2017,08,04,02,13,16.90
2017,08,04,02,14,16.90
2017,08,04,02,15,16.80
2017,08,04,02,16,16.80
2017,08,04,02,17,16.80
2017,08,04,02,18,16.70
2017,08,04,02,19,16.70
2017,08,04,02,20,16.70
2017,08,04,02,21,16.60
2017,08,04,02,22,16.60
2017,08,04,02,23,16.50
2017,08,04,02,24,16.50
2017,08,04,02,25,16.40
2017,08,04,02,26,16.40
2017,08,04,02,27,16.40
2017,08,04,02,28,16.40
2017,08,04,02,29,16.30
2017,08,04,02,30,16.30
2017,08,04,02,31,16.20
2017,08,04,02,32,16.20
2017,08,04,02,33,16.10
2017,08,04,02,34,16.10
2017,08,04,02,35,16.00
2017,08,04,02,36,16.00
2017,08,04,02,37,15.90
2017,08,04,02,38,15.90
2017,08,04,02,39,15.90
2017,08,04,02,40,15.90
2017,08,04,02,41,15.90
2017,08,04,02,42,15.90
2017,08,04,02,43,15.90
2017,08,04,02,44,15.90
2017,08,04,02,45,15.90
2017,08,04,02,46,15.90
2017,08,04,02,47,15.90
2017,08,04,02,48,15.90
2017,08,04,02,49,15.90
2017,08,04,02,50,15.90
2017,08,04,02,51,15.90
2017,08,04,02,52,15.90
2017,08,04,02,53,15.90
2017,08,04,02,54,15.90
2017,08,04,02,55,15.90
2017,08,04,02,56,15.90
2017,08,04,02,57,15.90
2017,08,04,02,58,15.80
2017,08,04,02,59,15.80
2017,08,04,03,00,15.90
2017,08,04,03,01,15.90
2017,08,04,03,02,15.90
2017,08,04,03,03,15.90
2017,08,04,03,04,15.90
2017,08,04,03,05,15.90
2017,08,04,03,06,16.00
2017,08,04,03,07,16.00
2017,08,04,03,08,16.10
2017,08,04,03,09,16.10
2017,08,04,03,10,16.10
2017,08,04,03,11,16.10
2017,08,04,03,12,16.10
2017,08,04,03,13,16.10
2017,08,04,03,14,16.10
2017,08,04,03,15,16.10
2017,08,04,03,16,16.00
2017,08,04,03,17,15.90
2017,08,04,03,18,15.90
2017,08,04,03,19,15.90
2017,08,04,03,20,15.80
2017,08,04,03,21,15.80
2017,08,04,03,22,15.80
2017,08,04,03,23,15.80
2017,08,04,03,24,15.80
2017,08,04,03,25,15.80
2017,08,04,03,26,15.80
2017,08,04,03,27,15.80
2017,08,04,03,28,15.80
2017,08,04,03,29,15.70
2017,08,04,03,30,15.70
2017,08,04,03,31,15.70
2017,08,04,03,32,15.70
2017,08,04,03,33,15.70
2017,08,04,03,34,15.70
2017,08,04,03,35,15.70
2017,08,04,03,36,15.70
2017,08,04,03,37,15.70
2017,08,04,03,38,15.70
2017,08,04,03,39,15.70
2017,08,04,03,40,15.70
2017,08,04,03,41,15.70
2017,08,04,03,42,15.70
2017,08,04,03,43,15.70
2017,08,04,03,44,15.70
2017,08,04,03,45,15.70
2017,08,04,03,46,15.70
2017,08,04,03,47,15.70
2017,08,04,03,48,15.70
2017,08,04,03,49,15.70
2017,08,04,03,50,15.70
2017,08,04,03,51,15.70
2017,08,04,03,52,15.70
2017,08,04,03,53,15.70
2017,08,04,03,54,15.80
2017,08,04,03,55,15.80
2017,08,04,03,56,15.80
2017,08,04,03,57,15.80
2017,08,04,03,58,15.80
2017,08,04,03,59,15.80
2017,08,04,04,00,15.80
2017,08,04,04,01,15.80
2017,08,04,04,02,15.80
2017,08,04,04,03,15.80
2017,08,04,04,04,15.80
2017,08,04,04,05,15.80
2017,08,04,04,06,15.80
2017,08,04,04,07,15.80
2017,08,04,04,08,15.80
2017,08,04,04,09,15.80
2017,08,04,04,10,15.80
2017,08,04,04,11,15.80
2017,08,04,04,12,15.80
2017,08,04,04,13,15.80
2017,08,04,04,14,15.90
2017,08,04,04,15,15.90
2017,08,04,04,16,15.90
2017,08,04,04,17,15.90
2017,08,04,04,18,15.90
2017,08,04,04,19,15.90
2017,08,04,04,20,15.90
2017,08,04,04,21,15.90
2017,08,04,04,22,15.90
2017,08,04,04,23,15.90
2017,08,04,04,24,15.90
2017,08,04,04,25,15.90
2017,08,04,04,26,15.80
2017,08,04,04,27,15.80
2017,08,04,04,28,15.80
2017,08,04,04,29,15.80
2017,08,04,04,30,15.80
2017,08,04,04,31,15.80
2017,08,04,04,32,15.80
2017,08,04,04,33,15.90
2017,08,04,04,34,16.00
2017,08,04,04,35,16.20
2017,08,04,04,36,16.40
2017,08,04,04,37,16.70
2017,08,04,04,38,17.00
2017,08,04,04,39,17.30
2017,08,04,04,40,17.50
2017,08,04,04,41,17.90
2017,08,04,04,42,18.20
2017,08,04,04,43,18.50
2017,08,04,04,44,18.80
2017,08,04,04,45,19.00
2017,08,04,04,46,19.10
2017,08,04,04,47,19.30
2017,08,04,04,48,19.40
2017,08,04,04,49,19.50
2017,08,04,04,50,19.60
2017,08,04,04,51,19.70
2017,08,04,04,52,19.80
2017,08,04,04,53,19.90
2017,08,04,04,54,20.00
2017,08,04,04,55,20.10
2017,08,04,04,56,20.10
2017,08,04,04,57,20.20
2017,08,04,04,58,20.20
2017,08,04,04,59,20.20
2017,08,04,05,00,20.20
2017,08,04,05,01,20.20
2017,08,04,05,02,20.20
2017,08,04,05,03,20.20
2017,08,04,05,04,20.20
2017,08,04,05,05,20.30
2017,08,04,05,06,20.30
2017,08,04,05,07,20.30
2017,08,04,05,08,20.30
2017,08,04,05,09,20.30
2017,08,04,05,10,20.30
2017,08,04,05,11,20.30
2017,08,04,05,12,20.30
2017,08,04,05,13,20.20
2017,08,04,05,14,20.20
2017,08,04,05,15,20.20
2017,08,04,05,16,20.10
2017,08,04,05,17,20.10
2017,08,04,05,18,20.10
2017,08,04,05,19,20.10
2017,08,04,05,20,20.10
2017,08,04,05,21,20.00
2017,08,04,05,22,19.90
2017,08,04,05,23,19.80
2017,08,04,05,24,19.70
2017,08,04,05,25,19.60
2017,08,04,05,26,19.40
2017,08,04,05,27,19.30
2017,08,04,05,28,19.10
2017,08,04,05,29,19.00
2017,08,04,05,30,18.80
2017,08,04,05,31,18.70
2017,08,04,05,32,18.60
2017,08,04,05,33,18.60
2017,08,04,05,34,18.50
2017,08,04,05,35,18.50
2017,08,04,05,36,18.40
2017,08,04,05,37,18.40
2017,08,04,05,38,18.30
2017,08,04,05,39,18.30
2017,08,04,05,40,18.30
2017,08,04,05,41,18.30
2017,08,04,05,42,18.20
2017,08,04,05,43,18.10
2017,08,04,05,44,18.10
2017,08,04,05,45,18.10
2017,08,04,05,46,18.00
2017,08,04,05,47,18.00
2017,08,04,05,48,17.90
2017,08,04,05,49,17.90
2017,08,04,05,50,17.80
2017,08,04,05,51,17.80
2017,08,04,05,52,17.70
2017,08,04,05,53,17.70
2017,08,04,05,54,17.80
2017,08,04,05,55,17.80
2017,08,04,05,56,17.90
2017,08,04,05,57,17.90
2017,08,04,05,58,17.90
2017,08,04,05,59,17.90
2017,08,04,06,00,18.00
2017,08,04,06,01,18.10
2017,08,04,06,02,18.10
2017,08,04,06,03,18.20
2017,08,04,06,04,18.20
2017,08,04,06,05,18.30
2017,08,04,06,06,18.30
2017,08,04,06,07,18.40
2017,08,04,06,08,18.40
2017,08,04,06,09,18.40
2017,08,04,06,10,18.40
2017,08,04,06,11,18.40
2017,08,04,06,12,18.50
2017,08,04,06,13,18.50
2017,08,04,06,14,18.50
2017,08,04,06,15,18.50
2017,08,04,06,16,18.60
2017,08,04,06,17,18.60
2017,08,04,06,18,18.60
2017,08,04,06,19,18.60
2017,08,04,06,20,18.70
2017,08,04,06,21,18.70
2017,08,04,06,22,18.60
2017,08,04,06,23,18.60
2017,08,04,06,24,18.50
2017,08,04,06,25,18.40
2017,08,04,06,26,18.30
2017,08,04,06,27,18.20
2017,08,04,06,28,18.10
2017,08,04,06,29,18.00
2017,08,04,06,30,18.00
2017,08,04,06,31,17.80
2017,08,04,06,32,17.80
2017,08,04,06,33,17.70
2017,08,04,06,34,17.60
2017,08,04,06,35,17.50
2017,08,04,06,36,17.40
2017,08,04,06,37,17.30
2017,08,04,06,38,17.20
2017,08,04,06,39,17.10
2017,08,04,06,40,17.00
2017,08,04,06,41,16.80
2017,08,04,06,42,16.70
2017,08,04,06,43,16.50
2017,08,04,06,44,16.30
2017,08,04,06,45,16.20
2017,08,04,06,46,16.10
2017,08,04,06,47,16.00
2017,08,04,06,48,16.00
2017,08,04,06,49,15.90
2017,08,04,06,50,15.90
2017,08,04,06,51,15.90
2017,08,04,06,52,15.90
2017,08,04,06,53,15.90
2017,08,04,06,54,15.80
2017,08,04,06,55,15.80
2017,08,04,06,56,15.80
2017,08,04,06,57,15.80
2017,08,04,06,58,15.90
2017,08,04,06,59,15.90
2017,08,04,07,00,15.90
2017,08,04,07,01,16.00
2017,08,04,07,02,16.00
2017,08,04,07,03,16.10
2017,08,04,07,04,16.10
2017,08,04,07,05,16.20
2017,08,04,07,06,16.20
2017,08,04,07,07,16.20
2017,08,04,07,08,16.30
2017,08,04,07,09,16.30
2017,08,04,07,10,16.30
2017,08,04,07,11,16.40
2017,08,04,07,12,16.40
2017,08,04,07,13,16.50
2017,08,04,07,14,16.60
2017,08,04,07,15,16.70
2017,08,04,07,16,16.80
2017,08,04,07,17,16.80
2017,08,04,07,18,16.90
2017,08,04,07,19,17.00
2017,08,04,07,20,17.00
2017,08,04,07,21,17.10
2017,08,04,07,22,17.20
2017,08,04,07,23,17.20
2017,08,04,07,24,17.30
2017,08,04,07,25,17.30
2017,08,04,07,26,17.40
2017,08,04,07,27,17.40
2017,08,04,07,28,17.40
2017,08,04,07,29,17.40
2017,08,04,07,30,17.50
2017,08,04,07,31,17.50
2017,08,04,07,32,17.60
2017,08,04,07,33,17.60
2017,08,04,07,34,17.70
2017,08,04,07,35,17.70
2017,08,04,07,36,17.70
2017,08,04,07,37,17.70
2017,08,04,07,38,17.70
2017,08,04,07,39,17.70
2017,08,04,07,40,17.70
2017,08,04,07,41,17.70
2017,08,04,07,42,17.70
2017,08,04,07,43,17.70
2017,08,04,07,44,17.70
2017,08,04,07,45,17.70
2017,08,04,07,46,17.80
2017,08,04,07,47,17.80
2017,08,04,07,48,17.80
2017,08,04,07,49,17.80
2017,08,04,07,50,17.80
2017,08,04,07,51,17.80
2017,08,04,07,52,17.80
2017,08,04,07,53,17.80
2017,08,04,07,54,17.90
2017,08,04,07,55,17.90
2017,08,04,07,56,17.80
2017,08,04,07,57,17.80
2017,08,04,07,58,17.80
2017,08,04,07,59,17.90
2017,08,04,08,00,17.90
2017,08,04,08,01,17.90
2017,08,04,08,02,17.90
2017,08,04,08,03,17.90
2017,08,04,08,04,17.80
2017,08,04,08,05,17.80
2017,08,04,08,06,17.80
2017,08,04,08,07,17.80
2017,08,04,08,08,17.90
2017,08,04,08,09,17.90
2017,08,04,08,10,18.00
2017,08,04,08,11,18.00
2017,08,04,08,12,18.10
2017,08,04,08,13,18.10
2017,08,04,08,14,18.20
2017,08,04,08,15,18.20
2017,08,04,08,16,18.30
2017,08,04,08,17,18.30
2017,08,04,08,18,18.30
2017,08,04,08,19,18.30
2017,08,04,08,20,18.30
2017,08,04,08,21,18.30
2017,08,04,08,22,18.30
2017,08,04,08,23,18.40
2017,08,04,08,24,18.50
2017,08,04,08,25,18.50
2017,08,04,08,26,18.60
2017,08,04,08,27,18.70
2017,08,04,08,28,18.80
2017,08,04,08,29,18.80
2017,08,04,08,30,18.90
2017,08,04,08,31,19.00
2017,08,04,08,32,19.10
2017,08,04,08,33,19.20
2017,08,04,08,34,19.20
2017,08,04,08,35,19.30
2017,08,04,08,36,19.30
2017,08,04,08,37,19.30
2017,08,04,08,38,19.20
2017,08,04,08,39,19.20
2017,08,04,08,40,19.20
2017,08,04,08,41,19.20
2017,08,04,08,42,19.30
2017,08,04,08,43,19.40
2017,08,04,08,44,19.40
2017,08,04,08,45,19.50
2017,08,04,08,46,19.60
2017,08,04,08,47,19.70
2017,08,04,08,48,19.80
2017,08,04,08,49,19.90
2017,08,04,08,50,20.00
2017,08,04,08,51,20.10
2017,08,04,08,52,20.30
2017,08,04,08,53,20.40
2017,08,04,08,54,20.60
2017,08,04,08,55,20.70
2017,08,04,08,56,20.90
2017,08,04,08,57,21.00
2017,08,04,08,58,21.10
2017,08,04,08,59,21.10
2017,08,04,09,00,21.20
2017,08,04,09,01,21.20
2017,08,04,09,02,21.30
2017,08,04,09,03,21.30
2017,08,04,09,04,21.40
2017,08,04,09,05,21.40
2017,08,04,09,06,21.50
2017,08,04,09,07,21.50
2017,08,04,09,08,21.60
2017,08,04,09,09,21.60
2017,08,04,09,10,21.70
2017,08,04,09,11,21.70
2017,08,04,09,12,21.70
2017,08,04,09,13,21.70
2017,08,04,09,14,21.70
2017,08,04,09,15,21.70
2017,08,04,09,16,21.70
2017,08,04,09,17,21.80
2017,08,04,09,18,21.80
2017,08,04,09,19,21.80
2017,08,04,09,20,21.90
2017,08,04,09,21,21.90
2017,08,04,09,22,22.00
2017,08,04,09,23,22.10
2017,08,04,09,24,22.10
2017,08,04,09,25,22.20
2017,08,04,09,26,22.20
2017,08,04,09,27,22.30
2017,08,04,09,28,22.30
2017,08,04,09,29,22.30
2017,08,04,09,30,22.30
2017,08,04,09,31,22.30
2017,08,04,09,32,22.30
2017,08,04,09,33,22.30
2017,08,04,09,34,22.30
2017,08,04,09,35,22.30
2017,08,04,09,36,22.20
2017,08,04,09,37,22.20
2017,08,04,09,38,22.20
2017,08,04,09,39,22.20
2017,08,04,09,40,22.20
2017,08,04,09,41,22.10
2017,08,04,09,42,22.10
2017,08,04,09,43,22.10
2017,08,04,09,44,22.00
2017,08,04,09,45,22.00
2017,08,04,09,46,21.90
2017,08,04,09,47,21.90
2017,08,04,09,48,21.90
2017,08,04,09,49,21.90
2017,08,04,09,50,22.00
2017,08,04,09,51,22.00
2017,08,04,09,52,22.10
2017,08,04,09,53,22.10
2017,08,04,09,54,22.20
2017,08,04,09,55,22.20
2017,08,04,09,56,22.30
2017,08,04,09,57,22.40
2017,08,04,09,58,22.40
2017,08,04,09,59,22.40
2017,08,04,10,00,22.50
2017,08,04,10,01,22.50
2017,08,04,10,02,22.60
2017,08,04,10,03,22.60
2017,08,04,10,04,22.80
2017,08,04,10,05,22.80
2017,08,04,10,06,22.80
2017,08,04,10,07,22.70
2017,08,04,10,08,22.60
2017,08,04,10,09,22.50
2017,08,04,10,10,22.40
2017,08,04,10,11,22.30
2017,08,04,10,12,22.30
2017,08,04,10,13,22.20
2017,08,04,10,14,22.10
2017,08,04,10,15,22.10
2017,08,04,10,16,22.10
2017,08,04,10,17,22.00
2017,08,04,10,18,22.00
2017,08,04,10,19,22.00
2017,08,04,10,20,22.10
2017,08,04,10,21,22.10
2017,08,04,10,22,22.30
2017,08,04,10,23,22.40
2017,08,04,10,24,22.50
2017,08,04,10,25,22.60
2017,08,04,10,26,22.70
2017,08,04,10,27,22.80
2017,08,04,10,28,22.90
2017,08,04,10,29,23.00
2017,08,04,10,30,23.00
2017,08,04,10,31,23.20
2017,08,04,10,32,23.30
2017,08,04,10,33,23.30
2017,08,04,10,34,23.40
2017,08,04,10,35,23.30
2017,08,04,10,36,23.30
2017,08,04,10,37,23.30
2017,08,04,10,38,23.30
2017,08,04,10,39,23.30
2017,08,04,10,40,23.30
2017,08,04,10,41,23.30
2017,08,04,10,42,23.30
2017,08,04,10,43,23.30
2017,08,04,10,44,23.30
2017,08,04,10,45,23.40
2017,08,04,10,46,23.40
2017,08,04,10,47,23.50
2017,08,04,10,48,23.50
2017,08,04,10,49,23.50
2017,08,04,10,50,23.50
2017,08,04,10,51,23.60
2017,08,04,10,52,23.60
2017,08,04,10,53,23.60
2017,08,04,10,54,23.60
2017,08,04,10,55,23.60
2017,08,04,10,56,23.50
2017,08,04,10,57,23.50
2017,08,04,10,58,23.40
2017,08,04,10,59,23.40
2017,08,04,11,00,23.40
2017,08,04,11,01,23.30
2017,08,04,11,02,23.40
2017,08,04,11,03,23.40
2017,08,04,11,04,23.40
2017,08,04,11,05,23.30
2017,08,04,11,06,23.20
2017,08,04,11,07,23.20
2017,08,04,11,08,23.20
2017,08,04,11,09,23.30
2017,08,04,11,10,23.30
2017,08,04,11,11,23.20
2017,08,04,11,12,23.10
2017,08,04,11,13,23.10
2017,08,04,11,14,23.00
2017,08,04,11,15,23.00
2017,08,04,11,16,22.90
2017,08,04,11,17,22.80
2017,08,04,11,18,22.80
2017,08,04,11,19,22.70
2017,08,04,11,20,22.70
2017,08,04,11,21,22.70
2017,08,04,11,22,22.70
2017,08,04,11,23,22.70
2017,08,04,11,24,22.60
2017,08,04,11,25,22.60
2017,08,04,11,26,22.50
2017,08,04,11,27,22.50
2017,08,04,11,28,22.50
2017,08,04,11,29,22.40
2017,08,04,11,30,22.30
2017,08,04,11,31,22.20
2017,08,04,11,32,22.20
2017,08,04,11,33,22.30
2017,08,04,11,34,22.30
2017,08,04,11,35,22.40
2017,08,04,11,36,22.40
2017,08,04,11,37,22.40
2017,08,04,11,38,22.40
2017,08,04,11,39,22.40
2017,08,04,11,40,22.30
2017,08,04,11,41,22.30
2017,08,04,11,42,22.30
2017,08,04,11,43,22.30
2017,08,04,11,44,22.20
2017,08,04,11,45,22.20
2017,08,04,11,46,22.20
2017,08,04,11,47,22.00
2017,08,04,11,48,21.90
2017,08,04,11,49,21.80
2017,08,04,11,50,21.70
2017,08,04,11,51,21.70
2017,08,04,11,52,21.70
2017,08,04,11,53,21.70
2017,08,04,11,54,21.70
2017,08,04,11,55,21.80
2017,08,04,11,56,21.90
2017,08,04,11,57,21.90
2017,08,04,11,58,22.00
2017,08,04,11,59,22.00
2017,08,04,12,00,22.00
2017,08,04,12,01,22.10
2017,08,04,12,02,22.10
2017,08,04,12,03,22.20
2017,08,04,12,04,22.30
2017,08,04,12,05,22.20
2017,08,04,12,06,22.10
2017,08,04,12,07,22.00
2017,08,04,12,08,21.90
2017,08,04,12,09,21.80
2017,08,04,12,10,21.80
2017,08,04,12,11,21.80
2017,08,04,12,12,21.90
2017,08,04,12,13,22.10
2017,08,04,12,14,22.20
2017,08,04,12,15,22.40
2017,08,04,12,16,22.60
2017,08,04,12,17,22.60
2017,08,04,12,18,22.70
2017,08,04,12,19,22.80
2017,08,04,12,20,22.90
2017,08,04,12,21,23.00
2017,08,04,12,22,23.10
2017,08,04,12,23,23.10
2017,08,04,12,24,23.10
2017,08,04,12,25,23.00
2017,08,04,12,26,22.90
2017,08,04,12,27,22.90
2017,08,04,12,28,22.80
2017,08,04,12,29,22.80
2017,08,04,12,30,22.80
2017,08,04,12,31,22.90
2017,08,04,12,32,22.90
2017,08,04,12,33,23.00
2017,08,04,12,34,23.10
2017,08,04,12,35,23.10
2017,08,04,12,36,23.00
2017,08,04,12,37,23.00
2017,08,04,12,38,23.00
2017,08,04,12,39,23.10
2017,08,04,12,40,23.20
2017,08,04,12,41,23.20
2017,08,04,12,42,23.10
2017,08,04,12,43,23.00
2017,08,04,12,44,23.00
2017,08,04,12,45,23.00
2017,08,04,12,46,23.10
2017,08,04,12,47,23.10
2017,08,04,12,48,23.20
2017,08,04,12,49,23.20
2017,08,04,12,50,23.20
2017,08,04,12,51,23.20
2017,08,04,12,52,23.20
2017,08,04,12,53,23.20
2017,08,04,12,54,23.20
2017,08,04,12,55,23.30
2017,08,04,12,56,23.30
2017,08,04,12,57,23.30
2017,08,04,12,58,23.20
2017,08,04,12,59,23.20
2017,08,04,13,00,23.20
2017,08,04,13,01,23.10
2017,08,04,13,02,23.10
2017,08,04,13,03,23.00
2017,08,04,13,04,22.90
2017,08,04,13,05,22.90
2017,08,04,13,06,22.70
2017,08,04,13,07,22.60
2017,08,04,13,08,22.40
2017,08,04,13,09,22.20
2017,08,04,13,10,22.10
2017,08,04,13,11,22.10
2017,08,04,13,12,22.20
2017,08,04,13,13,22.30
2017,08,04,13,14,22.30
2017,08,04,13,15,22.40
2017,08,04,13,16,22.40
2017,08,04,13,17,22.30
2017,08,04,13,18,22.30
2017,08,04,13,19,22.30
2017,08,04,13,20,22.40
2017,08,04,13,21,22.40
2017,08,04,13,22,22.40
2017,08,04,13,23,22.40
2017,08,04,13,24,22.50
2017,08,04,13,25,22.60
2017,08,04,13,26,22.70
2017,08,04,13,27,22.80
2017,08,04,13,28,22.80
2017,08,04,13,29,22.80
2017,08,04,13,30,22.80
2017,08,04,13,31,22.80
2017,08,04,13,32,22.80
2017,08,04,13,33,22.70
2017,08,04,13,34,22.60
2017,08,04,13,35,22.50
2017,08,04,13,36,22.40
2017,08,04,13,37,22.40
2017,08,04,13,38,22.40
2017,08,04,13,39,22.40
2017,08,04,13,40,22.40
2017,08,04,13,41,22.40
2017,08,04,13,42,22.60
2017,08,04,13,43,22.60
2017,08,04,13,44,22.60
2017,08,04,13,45,22.50
2017,08,04,13,46,22.50
2017,08,04,13,47,22.40
2017,08,04,13,48,22.50
2017,08,04,13,49,22.50
2017,08,04,13,50,22.50
2017,08,04,13,51,22.40
2017,08,04,13,52,22.30
2017,08,04,13,53,22.30
2017,08,04,13,54,22.30
2017,08,04,13,55,22.40
2017,08,04,13,56,22.40
2017,08,04,13,57,22.50
2017,08,04,13,58,22.60
2017,08,04,13,59,22.70
2017,08,04,14,00,22.70
2017,08,04,14,01,22.80
2017,08,04,14,02,22.80
2017,08,04,14,03,22.80
2017,08,04,14,04,22.80
2017,08,04,14,05,22.70
2017,08,04,14,06,22.60
2017,08,04,14,07,22.50
2017,08,04,14,08,22.50
2017,08,04,14,09,22.50
2017,08,04,14,10,22.50
2017,08,04,14,11,22.70
2017,08,04,14,12,22.90
2017,08,04,14,13,23.00
2017,08,04,14,14,23.10
2017,08,04,14,15,23.10
2017,08,04,14,16,23.10
2017,08,04,14,17,23.10
2017,08,04,14,18,23.20
2017,08,04,14,19,23.30
2017,08,04,14,20,23.40
2017,08,04,14,21,23.30
2017,08,04,14,22,23.30
2017,08,04,14,23,23.20
2017,08,04,14,24,23.20
2017,08,04,14,25,23.10
2017,08,04,14,26,23.10
2017,08,04,14,27,23.10
2017,08,04,14,28,23.20
2017,08,04,14,29,23.30
2017,08,04,14,30,23.30
2017,08,04,14,31,23.30
2017,08,04,14,32,23.30
2017,08,04,14,33,23.20
2017,08,04,14,34,23.20
2017,08,04,14,35,23.20
2017,08,04,14,36,23.20
2017,08,04,14,37,23.20
2017,08,04,14,38,23.10
2017,08,04,14,39,23.10
2017,08,04,14,40,23.10
2017,08,04,14,41,23.20
2017,08,04,14,42,23.30
2017,08,04,14,43,23.40
2017,08,04,14,44,23.50
2017,08,04,14,45,23.50
2017,08,04,14,46,23.60
2017,08,04,14,47,23.70
2017,08,04,14,48,23.90
2017,08,04,14,49,24.00
2017,08,04,14,50,24.10
2017,08,04,14,51,24.20
2017,08,04,14,52,24.20
2017,08,04,14,53,24.30
2017,08,04,14,54,24.30
2017,08,04,14,55,24.40
2017,08,04,14,56,24.30
2017,08,04,14,57,24.20
2017,08,04,14,58,24.10
2017,08,04,14,59,24.10
2017,08,04,15,00,24.10
2017,08,04,15,01,24.20
2017,08,04,15,02,24.20
2017,08,04,15,03,24.10
2017,08,04,15,04,24.20
2017,08,04,15,05,24.30
2017,08,04,15,06,24.40
2017,08,04,15,07,24.40
2017,08,04,15,08,24.30
2017,08,04,15,09,24.20
2017,08,04,15,10,24.10
2017,08,04,15,11,24.10
2017,08,04,15,12,24.20
2017,08,04,15,13,24.20
2017,08,04,15,14,24.20
2017,08,04,15,15,24.30
2017,08,04,15,16,24.20
2017,08,04,15,17,24.20
2017,08,04,15,18,24.20
2017,08,04,15,19,24.20
2017,08,04,15,20,24.00
2017,08,04,15,21,23.80
2017,08,04,15,22,23.50
2017,08,04,15,23,23.30
2017,08,04,15,24,23.00
2017,08,04,15,25,22.90
2017,08,04,15,26,22.90
2017,08,04,15,27,22.90
2017,08,04,15,28,22.90
2017,08,04,15,29,23.00
2017,08,04,15,30,23.10
2017,08,04,15,31,23.20
2017,08,04,15,32,23.20
2017,08,04,15,33,23.20
2017,08,04,15,34,23.10
2017,08,04,15,35,23.10
2017,08,04,15,36,23.10
2017,08,04,15,37,23.00
2017,08,04,15,38,22.90
2017,08,04,15,39,22.80
2017,08,04,15,40,22.80
2017,08,04,15,41,22.90
2017,08,04,15,42,22.90
2017,08,04,15,43,22.90
2017,08,04,15,44,22.90
2017,08,04,15,45,22.80
2017,08,04,15,46,22.80
2017,08,04,15,47,22.90
2017,08,04,15,48,23.00
2017,08,04,15,49,23.00
2017,08,04,15,50,23.00
2017,08,04,15,51,23.00
2017,08,04,15,52,23.00
2017,08,04,15,53,23.00
2017,08,04,15,54,23.00
2017,08,04,15,55,23.10
2017,08,04,15,56,23.10
2017,08,04,15,57,23.10
2017,08,04,15,58,23.00
2017,08,04,15,59,23.00
2017,08,04,16,00,22.90
2017,08,04,16,01,22.90
2017,08,04,16,02,22.90
2017,08,04,16,03,22.90
2017,08,04,16,04,22.90
2017,08,04,16,05,22.80
2017,08,04,16,06,22.80
2017,08,04,16,07,22.80
2017,08,04,16,08,22.80
2017,08,04,16,09,22.80
2017,08,04,16,10,22.90
2017,08,04,16,11,22.80
2017,08,04,16,12,22.80
2017,08,04,16,13,22.80
2017,08,04,16,14,22.80
2017,08,04,16,15,22.90
2017,08,04,16,16,23.00
2017,08,04,16,17,23.00
2017,08,04,16,18,23.10
2017,08,04,16,19,23.10
2017,08,04,16,20,23.00
2017,08,04,16,21,23.10
2017,08,04,16,22,23.10
2017,08,04,16,23,23.20
2017,08,04,16,24,23.10
2017,08,04,16,25,23.00
2017,08,04,16,26,22.90
2017,08,04,16,27,22.90
2017,08,04,16,28,22.90
2017,08,04,16,29,22.90
2017,08,04,16,30,22.80
2017,08,04,16,31,22.80
2017,08,04,16,32,22.80
2017,08,04,16,33,22.80
2017,08,04,16,34,22.90
2017,08,04,16,35,22.90
2017,08,04,16,36,23.00
2017,08,04,16,37,23.00
2017,08,04,16,38,23.10
2017,08,04,16,39,23.10
2017,08,04,16,40,23.20
2017,08,04,16,41,23.20
2017,08,04,16,42,23.30
2017,08,04,16,43,23.30
2017,08,04,16,44,23.30
2017,08,04,16,45,23.30
2017,08,04,16,46,23.20
2017,08,04,16,47,23.20
2017,08,04,16,48,23.30
2017,08,04,16,49,23.20
2017,08,04,16,50,23.30
2017,08,04,16,51,23.30
2017,08,04,16,52,23.30
2017,08,04,16,53,23.40
2017,08,04,16,54,23.40
2017,08,04,16,55,23.40
2017,08,04,16,56,23.50
2017,08,04,16,57,23.40
2017,08,04,16,58,23.40
2017,08,04,16,59,23.40
2017,08,04,17,00,23.50
2017,08,04,17,01,23.50
2017,08,04,17,02,23.50
2017,08,04,17,03,23.40
2017,08,04,17,04,23.40
2017,08,04,17,05,23.40
2017,08,04,17,06,23.40
2017,08,04,17,07,23.30
2017,08,04,17,08,23.30
2017,08,04,17,09,23.30
2017,08,04,17,10,23.30
2017,08,04,17,11,23.20
2017,08,04,17,12,23.20
2017,08,04,17,13,23.20
2017,08,04,17,14,23.20
2017,08,04,17,15,23.20
2017,08,04,17,16,23.10
2017,08,04,17,17,23.10
2017,08,04,17,18,23.00
2017,08,04,17,19,23.00